Showing default

PORCUPINE 2, 1577

Orbit data source: Space-Track

PORCUPINE 2, 1577 is a payload satellite owned by NRL (US) in LEO that was launched on Fri, 13 Aug 1965 UTC via a THOR ABLESTAR launch vehicle from the Air Force Western Test Range (AFWTR). Payload-class satellites include a variety of spacecraft equipped with specific instruments for various scientific and technological missions. These include communications satellites like Starlink; space stations such as the ISS; scientific satellites like the Hubble; Earth observation satellites from companies like Planet Labs, Umbra, and HawkEye 360; GPS; miniature CubeSats for education and research; and military/defense satellites.

Loading next visibility...
Identifier
1577, 1965-065J
Orbit
LEO
Country
Flag of USUS
Related business
Manufacturer
NRL
Mission
Spacecraft
Bus & Motor
SURCAL, Unknown motor
Mass
5 kg wet, 5 kg dry
Launch date (UTC)
1965-08-13 (60 years ago)
Launch vehicle
THOR ABLESTAR
Launch site
Air Force Western Test Range (AFWTR)
Object type
Payload
Rocket body
Debris
Shape & HBR
Unknown
Radar Cross Section
Medium (>0.1 m² and <1 m²)

Expand to show TLE details & history
Last TLE update: 6 hours ago

TLE from 6 hours ago
0 PORCUPINE 2
1  1577U 65065J   25343.14111759  .00000158  00000-0  28809-3 0  9992
2  1577  90.0192 211.5959 0068430 280.3805 198.3739 13.36217398937273
Epoch: 2025-12-09T03:23Z
TLE epoch observation values (Epoch: 2025-12-09T03:23:12.559Z)
Latitude
61.57719°
Longitude
-97.30119°
Altitude
1,182.777 km
Speed
7.244 km/s
True Right ascension
02h 06m 31s
True Declination
61° 26' 28"
Sunlit
Object was in full shadow at epoch
Visualization orbit readout
Latitude
Unknown
Longitude
Unknown
Altitude
Unknown
Speed
Unknown
Apparent Right ascension
Unknown
Apparent Declination
Unknown
Sunlit
N/A
Visualization observer readout
Local Sidereal Time
07:38:04
Azimuth
Unknown
Elevation
Unknown
Doppler factor
Unknown
Orbital elements
Apogee altitude
1,171.786 km
Perigee altitude
1,069.16 km
Semi-major axis
7,498.61 km
Eccentricity
0.00684
Inclination
90.0192°
RAAN
211.5959°
Arg. of periapsis
280.3805°
True anomaly
198.12871°
Mean anomaly
198.3739°
Eccentric anomaly
198.25111°
Mean motion
3.3425 °/min
Orbital period
107.7 mins
BSTAR
0.00028809
Loading maneuver chart data...
Computing Atmospheric mass density...
Loading historical data...
Loading historical data...
Loading historical data...
Loading historical data...
Loading historical data...
Loading historical data...
Loading historical data...

Documentation

Showing up to 5 results
|